Terug naar catalogus

STARLINK-30074

ActiefCommunicatieVLEO
NORAD 57508·PAYLOAD·🇺🇸 United States

Gelanceerd Aug 7, 2023 vanaf Cape Canaveral Space Force Station

Loading…

Volgende Passages (komende 24 uur)

TLE

VersSource: CelesTrak SupGP

Epoch: Sep 14, 2026, 21:35 UTC

1 57508C 23113P   26257.89979167  .00000975  00000+0  35285-4 0  2577
2 57508  43.0016  27.6574 0001539 267.2110 345.5490 15.27592433    11

Volg STARLINK-30074 in realtime met AllMySat

Download on the App Store